A/2018 W3

Japanese version
Home page
Updated on October 14, 2023

---------------------------------------------------------------------

* Profile

Discovery Date November 29, 2018
Magnitude 21.2 mag
Discoverer Cerro Tololo-DECam

* Orbital Elements

Epoch 2023 Feb. 25.0 TT = JDT 2460000.5
T 2021 Apr. 13.05687 TT                                 Rudenko
q   4.2904998            (2000.0)            P               Q
z  +0.0014202      Peri.  313.96442     -0.04352950     -0.39488323
 +/-0.0000010      Node   251.67274     -0.38094646     -0.84260993
e   0.9939068      Incl.  104.81952     -0.92357186     +0.36616354
H   10.7
>From 3660 observations 2018 Feb. 7-2023 May 30, mean residual 0".2.

* Magnitudes Graph

        H = 10.5  G = 0.15

---------------------------------------------------------------------

The orbital elements are published on M.P.E.C. 2023-L37.
The magnitudes graphs are made with Comet for Windows.

---------------------------------------------------------------------

Copyright(C) Seiichi Yoshida (comet@aerith.net). All rights reserved.